MBE NZWL-NZWL

Flight info

Callsign MBE
Flight time 0h 11m
Altitude 3500
Route NZCH
Aircraft PA24/L-SDGRY/S

Departure

Time 2026-04-18 02:54
Airport West Melton Aerodrome (NZWL)

Arrival

Time 2026-04-18 03:06
Airport West Melton Aerodrome (NZWL)
Time Latitude Longitude Altitude Speed Heading
2026-04-18 02:53 -43.47823 172.38993 298 ft 64 kts 64°
2026-04-18 02:54 -43.47653 172.39555 310 ft 78 kts 62°
2026-04-18 02:54 -43.47416 172.40286 482 ft 85 kts 60°
2026-04-18 02:54 -43.47156 172.41009 772 ft 82 kts 56°
2026-04-18 02:54 -43.46839 172.41607 1001 ft 75 kts 10°
2026-04-18 02:55 -43.46462 172.41216 1222 ft 72 kts 303°
2026-04-18 02:55 -43.46247 172.40587 1469 ft 73 kts 294°
2026-04-18 02:55 -43.45930 172.40062 1506 ft 72 kts 323°
2026-04-18 02:55 -43.45545 172.39631 1519 ft 71 kts 318°
2026-04-18 02:56 -43.45177 172.39119 1543 ft 81 kts 315°
2026-04-18 02:56 -43.44951 172.38447 1558 ft 87 kts 261°
2026-04-18 02:56 -43.46235 172.38330 1487 ft 104 kts 166°
2026-04-18 02:57 -43.46928 172.38626 1480 ft 107 kts 167°
2026-04-18 02:57 -43.47636 172.38944 1509 ft 109 kts 165°
2026-04-18 02:57 -43.48330 172.39277 1524 ft 104 kts 161°
2026-04-18 02:57 -43.48904 172.39854 1534 ft 105 kts 107°
2026-04-18 02:58 -43.48677 172.40604 1421 ft 84 kts 13°
2026-04-18 02:58 -43.48144 172.40404 1338 ft 82 kts 333°
2026-04-18 02:58 -43.47634 172.40080 1291 ft 80 kts 330°
2026-04-18 02:58 -43.47137 172.39747 1269 ft 76 kts 332°
2026-04-18 02:59 -43.46766 172.39312 1230 ft 75 kts 289°
2026-04-18 02:59 -43.47038 172.38637 1130 ft 91 kts 237°
2026-04-18 02:59 -43.47396 172.37943 1128 ft 86 kts 248°
2026-04-18 02:59 -43.47656 172.37181 1126 ft 85 kts 250°
2026-04-18 03:00 -43.47892 172.36470 936 ft 78 kts 251°
2026-04-18 03:00 -43.48352 172.36221 854 ft 89 kts 155°
2026-04-18 03:00 -43.48449 172.36919 736 ft 83 kts 68°
2026-04-18 03:00 -43.48240 172.37612 608 ft 70 kts 61°
2026-04-18 03:01 -43.48048 172.38248 465 ft 74 kts 57°
2026-04-18 03:01 -43.47847 172.38915 302 ft 72 kts 64°
2026-04-18 03:01 -43.47682 172.39454 299 ft 55 kts 68°
2026-04-18 03:01 -43.47486 172.40090 373 ft 81 kts 63°
2026-04-18 03:02 -43.47246 172.40788 621 ft 79 kts 59°
2026-04-18 03:02 -43.47082 172.41500 856 ft 80 kts 60°
2026-04-18 03:02 -43.47194 172.42267 1052 ft 95 kts 131°
2026-04-18 03:02 -43.47687 172.42905 1252 ft 100 kts 127°
2026-04-18 03:03 -43.48088 172.43667 1460 ft 98 kts 113°
2026-04-18 03:03 -43.48386 172.44524 1516 ft 100 kts 107°
2026-04-18 03:03 -43.48651 172.45401 1470 ft 98 kts 104°
2026-04-18 03:03 -43.48863 172.46296 1428 ft 96 kts 99°
2026-04-18 03:04 -43.49039 172.47140 1466 ft 94 kts 96°
2026-04-18 03:04 -43.49207 172.48012 1453 ft 95 kts 99°
2026-04-18 03:04 -43.49386 172.48885 1368 ft 95 kts 97°
2026-04-18 03:04 -43.49595 172.49719 1225 ft 91 kts 107°
2026-04-18 03:05 -43.49911 172.50478 1011 ft 90 kts 132°
2026-04-18 03:05 -43.50067 172.51278 776 ft 80 kts 69°
2026-04-18 03:05 -43.49746 172.51800 608 ft 71 kts 34°
2026-04-18 03:05 -43.49367 172.52207 495 ft 69 kts 23°
2026-04-18 03:06 -43.49003 172.52633 368 ft 63 kts 30°
2026-04-18 03:06 -43.48672 172.52997 188 ft 64 kts 27°
2026-04-18 03:06 -43.48365 172.53335 115 ft 47 kts 33°
2026-04-18 03:06 -43.48046 172.53724 194 ft 70 kts 28°
2026-04-18 03:07 -43.47652 172.54142 372 ft 75 kts 26°
2026-04-18 03:07 -43.47217 172.54538 584 ft 79 kts 24°
2026-04-18 03:07 -43.46729 172.54772 766 ft 79 kts 344°
2026-04-18 03:07 -43.46469 172.54129 1023 ft 75 kts 285°
2026-04-18 03:08 -43.46465 172.53392 1108 ft 85 kts 275°
2026-04-18 03:08 -43.46892 172.52777 1102 ft 103 kts 204°
2026-04-18 03:08 -43.47532 172.52374 1072 ft 99 kts 211°
2026-04-18 03:08 -43.48142 172.51957 1038 ft 97 kts 213°
2026-04-18 03:09 -43.48718 172.51576 889 ft 86 kts 216°
2026-04-18 03:09 -43.49232 172.51218 745 ft 81 kts 214°
2026-04-18 03:09 -43.49682 172.51512 599 ft 78 kts 84°
2026-04-18 03:09 -43.49424 172.52043 417 ft 64 kts 35°
2026-04-18 03:10 -43.49108 172.52477 307 ft 64 kts 25°
2026-04-18 03:10 -43.48777 172.52875 209 ft 63 kts 26°
2026-04-18 03:10 -43.48459 172.53227 116 ft 49 kts 37°
2026-04-18 03:10 -43.48131 172.53591 172 ft 72 kts 28°
2026-04-18 03:11 -43.47730 172.53991 389 ft 73 kts 26°
2026-04-18 03:11 -43.47313 172.54423 604 ft 77 kts 31°
2026-04-18 03:11 -43.46913 172.54885 834 ft 76 kts 30°
2026-04-18 03:11 -43.46548 172.54590 1020 ft 79 kts 283°
2026-04-18 03:12 -43.46363 172.53991 1259 ft 67 kts 309°
2026-04-18 03:12 -43.46139 172.53483 1164 ft 60 kts 310°
2026-04-18 03:12 -43.46366 172.52975 1063 ft 91 kts 205°
2026-04-18 03:12 -43.46969 172.52642 1067 ft 95 kts 208°
2026-04-18 03:13 -43.47588 172.52301 1039 ft 96 kts 208°
2026-04-18 03:13 -43.48208 172.51953 1083 ft 99 kts 210°
2026-04-18 03:13 -43.48827 172.51579 1084 ft 94 kts 212°
2026-04-18 03:13 -43.49405 172.51187 1058 ft 88 kts 222°
2026-04-18 03:14 -43.49871 172.50692 901 ft 83 kts 228°
2026-04-18 03:14 -43.50313 172.50272 812 ft 83 kts 193°
2026-04-18 03:14 -43.50607 172.50758 647 ft 78 kts 40°
2026-04-18 03:14 -43.50204 172.51260 602 ft 80 kts 34°
2026-04-18 03:15 -43.49800 172.51737 559 ft 74 kts 29°
2026-04-18 03:15 -43.49426 172.52141 418 ft 65 kts 27°
2026-04-18 03:15 -43.49087 172.52540 324 ft 62 kts 24°
2026-04-18 03:15 -43.48754 172.52903 203 ft 61 kts 27°
2026-04-18 03:16 -43.48451 172.53244 116 ft 44 kts 36°
2026-04-18 03:16 -43.48371 172.53288 116 ft 9 kts 233°
2026-04-18 03:16 -43.48434 172.53228 115 ft 12 kts 216°
2026-04-18 03:16 -43.48495 172.53152 115 ft 11 kts 224°
2026-04-18 03:17 -43.48551 172.53090 114 ft 9 kts 218°
2026-04-18 03:17 -43.48594 172.53043 113 ft 7 kts 257°
2026-04-18 03:17 -43.48561 172.52978 114 ft 10 kts 311°
2026-04-18 03:17 -43.48522 172.52941 115 ft 6 kts 50°
2026-04-18 03:18 -43.48496 172.52977 115 ft 7 kts 43°
2026-04-18 03:18 -43.48447 172.53035 115 ft 8 kts 41°
2026-04-18 03:18 -43.48417 172.53003 115 ft 10 kts 312°
2026-04-18 03:18 -43.48381 172.53005 115 ft 9 kts 38°
2026-04-18 03:19 -43.48355 172.53054 115 ft 6 kts 136°
2026-04-18 03:19 -43.48351 172.53069 115 ft 0 kts 307°